Theta_e
291 292 290 291 290 292 293 292 293 294 294 294 296 297 298 296 297 297 292 295 293 294 295 296 296 295 295 295 296 297 298 298 299 300 300 301 302 302 303 302 302 303 302 300 299 301 300 300 300 300 300 298 298 297 296 296 295 295 294 293 293 293 292 292 292 292 285 284 285 284 285 285 284 284 283 283 284 286 286 285 286 285 284 284 285
293 293 292 291 290 291 291 289 291 290 291 292 293 295 295 295 294 290 293 296 292 295 295 295 294 294 295 296 296 297 298 299 299 299 300 300 300 301 301 300 299 299 298 299 298 298 297 297 298 298 298 297 297 296 296 294 293 293 293 292 293 292 292 292 292 292 291 282 284 283 283 285 283 284 283 282 283 284 283 283 284 283 283 282 282
290 289 290 290 290 289 288 289 289 288 289 291 290 292 292 290 289 292 293 293 290 292 294 293 293 293 293 294 296 296 296 297 298 299 299 300 300 300 300 299 298 297 297 297 297 296 295 295 296 297 297 295 295 295 294 294 293 293 293 292 292 292 292 292 292 290 290 284 283 282 282 283 283 283 283 283 283 283 282 282 282 282 283 283 282
290 290 290 290 288 287 288 288 287 287 288 290 290 290 291 290 288 289 291 291 291 290 290 292 292 292 292 293 294 295 295 295 295 296 298 298 299 299 298 297 298 297 297 297 297 295 295 294 295 295 294 294 294 294 294 293 293 292 292 292 291 291 292 290 291 292 290 284 282 282 282 282 283 283 283 283 282 282 282 282 282 282 282 282 282
290 290 289 290 290 290 289 288 287 288 288 288 289 289 289 289 288 289 289 290 290 290 290 289 290 291 293 293 294 294 295 295 295 295 296 297 297 297 297 297 296 296 296 296 295 296 295 295 295 295 294 293 293 293 292 291 292 291 291 292 291 291 291 290 289 289 287 285 281 282 282 282 282 282 282 281 281 281 282 281 281 281 281 282 282
289 289 289 289 290 290 290 290 290 289 289 289 289 289 289 288 289 288 288 290 290 290 291 290 290 291 291 292 293 294 294 294 294 295 295 295 295 295 296 296 296 296 296 295 295 295 295 295 295 294 294 293 293 293 292 291 291 291 290 291 290 290 289 288 288 287 287 285 282 281 282 280 281 281 282 282 280 280 280 280 281 281 281 280 281
290 289 289 288 289 290 290 290 291 290 290 289 289 289 289 288 288 289 288 289 289 290 289 290 290 290 291 291 292 292 293 293 293 294 294 295 294 294 294 294 294 294 295 295 294 294 294 294 294 294 294 293 293 293 292 291 291 290 290 290 290 288 288 287 286 286 286 284 283 282 281 282 281 280 281 282 282 281 280 280 279 280 280 281 280
289 289 289 289 289 290 290 289 290 290 290 289 289 289 289 289 288 288 287 288 289 289 289 290 290 289 290 291 291 291 291 292 293 293 293 293 293 293 293 293 293 293 293 293 293 293 294 294 294 294 294 293 293 293 292 291 290 290 290 289 288 287 287 286 285 285 285 284 282 281 281 280 280 281 281 282 281 281 282 281 280 279 279 280 280
287 288 288 288 289 289 289 289 289 288 289 289 289 289 289 289 289 288 287 288 288 288 289 289 289 289 290 289 290 290 291 292 293 292 292 293 292 292 292 292 292 292 292 292 292 292 292 292 292 293 291 290 291 291 292 292 290 289 288 288 287 287 286 285 285 285 285 284 282 282 280 280 279 279 279 280 280 280 281 282 281 281 279 278 279
286 286 286 287 287 287 287 287 287 287 288 288 288 288 288 288 288 288 288 288 288 288 287 287 288 289 289 290 290 290 291 293 291 292 293 292 292 292 292 292 292 292 291 291 291 291 291 291 291 289 289 289 289 290 291 291 291 291 290 287 287 286 286 285 285 285 284 283 282 281 280 279 279 280 280 281 282 281 280 281 279 278 279 278 279
285 286 287 286 286 286 285 286 286 286 287 286 287 287 288 287 287 287 287 287 288 288 287 287 287 287 288 289 289 290 291 292 292 294 295 295 293 291 291 291 291 291 291 291 291 290 290 290 290 289 288 288 288 289 290 291 290 290 290 289 288 287 286 285 285 285 284 284 283 281 281 280 280 281 281 281 281 281 281 281 279 278 278 276 275
286 286 286 286 286 286 286 286 285 285 285 286 286 286 286 286 286 287 287 287 287 286 286 287 287 287 288 288 288 289 290 291 293 294 294 295 294 292 291 291 291 291 290 290 290 290 290 289 289 289 289 289 288 288 288 289 290 290 289 288 288 289 289 287 285 284 284 283 282 282 281 281 281 282 281 281 280 281 280 280 279 278 278 278 277
286 287 287 287 287 287 287 287 286 286 286 286 286 285 285 285 285 286 287 286 285 286 287 287 287 287 287 288 288 289 290 291 293 293 294 294 295 293 292 291 291 290 290 290 290 289 289 288 288 288 288 286 287 287 287 287 288 289 288 287 288 288 289 290 289 286 286 284 282 282 282 282 281 281 282 282 282 280 279 279 279 279 279 278 278
286 286 286 286 286 286 286 286 286 286 286 286 286 286 286 286 286 286 286 286 285 286 286 286 286 286 286 287 288 288 289 290 292 293 293 293 294 294 292 291 291 290 290 290 290 289 288 288 287 287 286 285 286 286 286 286 286 286 285 285 285 286 288 289 287 287 287 285 284 282 284 284 282 283 283 284 281 280 279 278 279 278 278 278 278
285 286 286 286 286 286 285 285 285 285 285 285 286 286 286 286 287 287 287 287 286 287 287 287 287 287 286 286 287 287 288 290 291 292 292 293 294 293 292 290 290 289 289 289 289 289 288 288 287 287 286 285 285 286 285 285 285 285 285 285 285 285 285 285 286 285 285 285 285 285 284 285 284 284 283 284 283 282 281 280 280 279 278 278 276
285 285 286 285 285 285 284 284 284 284 284 285 285 285 285 286 286 287 287 287 286 286 286 285 286 286 287 286 286 287 288 290 291 291 292 293 293 290 290 289 289 288 288 288 288 288 288 288 287 286 285 285 285 287 286 285 285 284 284 284 284 284 284 285 287 287 286 285 285 285 285 285 285 284 283 283 282 281 281 280 279 278 277 275 273
285 285 285 285 284 284 284 283 283 283 283 283 284 284 284 285 286 285 285 286 286 286 286 286 286 286 286 286 286 286 287 288 290 290 291 292 292 289 288 288 288 287 287 287 287 287 287 286 286 286 285 284 286 288 288 286 285 284 283 283 283 283 283 285 287 288 288 288 287 287 287 287 287 287 286 286 283 281 279 278 276 277 275 274 273
285 285 285 284 284 284 283 283 282 282 283 282 283 283 284 284 285 284 284 284 285 286 286 286 285 284 284 285 285 286 286 287 288 290 290 291 290 288 288 287 287 287 286 286 286 286 285 285 285 285 284 284 286 288 288 286 284 284 283 282 282 282 282 284 284 285 287 287 287 287 287 287 287 287 287 286 285 283 279 277 277 277 275 274 273
285 284 284 284 283 283 282 282 282 282 282 282 282 282 283 283 283 283 283 283 283 284 283 283 284 284 282 283 283 284 284 285 287 289 290 290 290 287 287 287 286 286 286 285 285 284 284 284 285 285 285 285 288 288 288 286 285 284 283 283 282 281 282 283 283 283 283 283 284 284 285 285 285 284 284 285 284 282 281 279 278 277 275 274 272
284 284 283 283 283 282 282 281 281 281 281 281 281 281 281 281 281 282 282 282 282 282 281 281 281 282 282 281 281 281 282 283 284 288 289 290 290 288 286 286 286 286 285 285 284 283 283 283 284 286 286 287 288 289 288 287 285 284 284 283 282 281 283 283 283 283 282 282 281 280 279 280 280 281 281 281 280 279 279 279 278 277 275 274 273
283 283 282 282 282 281 281 280 280 280 279 279 280 280 279 280 280 280 280 280 280 280 280 280 280 280 280 279 279 279 280 281 282 286 288 289 290 289 286 286 286 286 285 284 283 282 281 282 283 285 287 287 288 289 288 288 286 285 285 284 284 283 283 282 282 283 280 279 278 278 277 277 277 277 276 276 275 276 276 276 276 277 275 273 271
282 281 281 281 280 280 280 280 280 279 279 278 278 279 279 278 278 278 278 278 278 278 279 278 279 279 279 277 277 278 279 281 280 284 286 288 289 290 287 286 286 286 285 283 282 281 281 282 282 284 286 287 288 288 288 288 287 285 285 286 286 285 283 282 281 280 279 278 277 276 275 275 274 274 273 272 272 272 272 272 272 270 271 271 272
281 280 279 279 279 279 279 279 279 279 278 278 277 277 278 278 278 276 276 276 277 277 278 278 277 278 278 277 276 277 277 279 283 283 285 287 288 289 289 288 288 286 284 282 281 281 282 282 282 284 286 287 288 289 288 288 287 285 287 287 286 285 283 281 280 279 278 277 276 274 274 274 273 271 270 269 269 269 268 268 268 268 267 266 266
279 278 278 278 278 278 278 278 278 277 277 277 276 276 277 278 277 276 275 275 276 277 278 277 276 277 277 278 278 277 278 278 281 283 284 285 287 288 289 289 289 285 283 282 282 281 282 282 283 285 286 286 287 288 288 287 285 287 287 286 285 283 281 280 279 278 277 276 275 273 273 273 272 271 269 268 266 266 265 264 265 265 264 263 264
277 277 277 277 277 278 278 278 277 277 276 275 275 277 277 277 277 277 274 275 275 276 277 276 276 278 278 279 280 280 280 281 281 282 284 284 285 287 288 289 289 288 283 282 282 282 283 284 284 285 286 286 287 288 287 286 287 287 287 286 283 281 280 279 278 277 276 275 275 274 273 272 271 270 267 265 265 265 264 262 261 261 261 261 260
276 276 276 277 277 277 277 277 277 277 276 275 274 275 275 275 276 276 274 275 275 275 276 277 278 279 279 280 281 281 281 281 281 282 283 284 284 285 287 288 286 286 284 282 282 283 284 284 285 285 285 286 285 285 285 285 286 286 285 283 281 280 280 279 278 277 276 275 275 274 271 269 268 267 266 266 266 264 262 261 261 259 260 261 260
275 275 275 276 277 276 276 276 277 277 276 275 274 274 274 274 274 275 275 275 275 276 277 278 279 280 280 280 281 280 280 280 281 281 282 283 284 285 285 285 285 284 282 282 282 283 284 284 284 285 285 285 285 285 285 285 285 284 282 281 280 280 280 279 278 277 276 275 273 270 267 267 267 266 266 265 263 261 262 261 260 256 257 257 258
274 275 275 275 276 276 275 276 276 276 276 275 275 276 275 273 274 275 276 276 276 277 278 279 280 280 280 280 280 280 280 280 281 281 282 283 283 283 283 282 282 281 280 281 281 282 283 284 285 285 285 284 284 284 284 283 282 280 279 279 279 279 279 279 277 275 274 272 269 267 266 266 266 265 264 263 261 260 260 258 258 256 256 256 254
274 274 274 275 275 276 275 275 275 275 275 275 275 274 275 275 276 275 276 276 277 277 277 278 279 280 280 279 279 279 280 280 281 284 283 284 283 282 281 281 281 280 281 282 282 283 283 283 283 283 282 281 281 280 279 279 278 277 277 276 276 276 276 275 274 272 270 268 266 266 266 266 264 263 262 261 259 258 258 258 256 257 253 254 254
273 274 275 275 275 276 276 276 275 275 275 275 275 276 277 279 278 276 276 279 281 282 282 279 279 279 279 280 281 280 279 281 284 285 285 285 285 284 283 283 283 281 283 284 283 282 282 282 282 281 280 279 278 278 277 276 274 273 274 275 274 274 274 273 271 269 269 268 267 266 265 264 263 262 261 259 256 256 258 261 252 254 254 253 253
273 273 274 275 275 276 276 276 277 277 277 276 276 276 276 278 281 282 282 281 282 282 283 283 284 284 281 279 280 283 284 284 284 285 285 285 285 284 284 284 283 283 284 283 281 281 280 279 279 279 279 278 277 276 275 274 273 273 272 272 272 273 272 270 269 268 268 267 266 265 264 264 262 261 260 259 258 254 253 252 253 252 253 252 252
271 272 273 274 275 275 276 277 277 278 278 278 277 276 276 277 278 281 283 283 283 283 283 283 284 283 283 283 281 280 283 284 285 285 285 285 284 284 284 284 284 284 284 284 280 279 279 278 278 278 277 277 276 275 274 274 273 272 271 271 270 270 270 267 267 267 266 265 264 263 262 261 260 259 258 257 256 254 253 252 251 251 249 249 250
270 270 271 273 274 275 276 277 277 278 278 278 278 278 278 277 277 278 280 284 284 283 283 283 284 284 283 283 283 282 282 284 285 285 285 284 284 284 284 284 284 284 285 282 279 278 278 277 277 276 276 275 275 274 274 273 272 272 272 271 269 267 266 266 267 266 265 264 263 261 260 259 258 257 256 257 256 253 252 251 249 250 250 250 251
269 270 271 272 273 274 275 276 277 278 279 279 279 279 279 279 279 279 278 279 280 282 284 284 283 283 283 283 283 283 283 284 285 285 285 284 284 284 284 283 284 285 284 279 278 277 277 276 276 275 275 275 274 273 272 272 271 271 270 267 266 264 265 265 265 264 263 263 261 259 258 258 258 257 255 253 252 253 253 251 250 251 249 250 250
269 270 272 272 273 274 275 276 277 278 279 279 279 279 279 279 279 279 278 278 278 278 279 280 282 283 282 282 283 283 283 284 285 285 285 284 284 284 284 281 281 282 279 277 277 276 276 275 275 274 274 273 273 273 272 271 270 269 267 265 263 263 263 264 262 262 261 259 259 258 257 257 256 256 256 255 253 252 252 251 250 251 250 248 249
268 269 269 270 271 273 274 275 276 277 278 279 280 280 279 279 279 279 279 278 278 278 278 279 279 281 282 282 282 283 284 284 285 285 284 284 284 284 281 280 278 276 275 274 274 273 273 273 273 272 272 272 272 271 271 270 269 267 265 263 262 263 262 261 261 260 258 259 257 257 257 254 256 255 253 253 255 255 253 253 251 250 250 249 249
267 267 268 269 271 272 273 274 275 276 278 278 279 279 279 279 278 278 278 278 278 278 278 278 278 278 281 280 281 283 284 284 285 284 284 284 285 283 280 279 276 274 273 272 272 272 272 270 271 270 270 270 270 269 269 267 266 265 265 264 263 263 262 261 260 259 257 256 256 257 255 255 254 254 255 255 252 251 251 251 251 252 252 252 254
266 266 267 268 269 270 271 272 274 276 277 278 278 279 278 278 278 278 277 277 277 277 277 277 278 278 277 278 281 281 282 284 284 283 284 284 283 280 279 277 275 273 270 269 270 271 269 268 270 270 268 268 267 267 266 265 265 264 263 262 262 261 262 261 260 258 257 256 256 255 254 254 254 254 254 255 254 253 251 252 252 253 253 254 253
265 267 268 268 269 269 270 272 273 275 276 277 278 278 277 277 277 277 277 277 277 277 276 277 277 277 277 278 279 280 282 281 280 279 274 272 275 277 276 275 273 271 269 268 268 268 268 267 266 267 266 266 266 265 265 263 263 262 261 261 260 261 260 258 257 257 256 255 254 253 254 254 253 253 254 254 253 253 252 252 252 252 253 252 253
264 264 266 267 268 269 270 271 272 274 275 276 276 277 277 277 277 276 276 276 276 276 276 276 276 276 276 277 278 279 280 279 276 273 272 272 272 273 274 272 271 270 269 268 268 267 267 265 265 266 265 265 264 264 263 262 262 260 260 260 260 259 259 258 257 257 256 255 254 253 253 253 252 252 251 253 254 253 252 252 252 252 253 253 253
263 264 265 266 267 268 268 269 271 272 274 276 276 277 277 276 276 276 276 276 276 276 276 275 275 273 274 276 280 280 276 272 271 270 269 270 270 270 270 270 270 269 269 268 267 266 265 264 264 264 263 262 262 261 261 260 260 260 259 259 259 259 258 257 257 256 255 254 254 253 252 252 252 253 253 252 255 253 252 252 253 253 254 254 255
262 262 263 264 266 266 266 268 269 271 272 274 275 275 276 276 276 276 275 275 275 275 274 273 273 273 276 280 279 276 271 269 268 267 267 267 266 266 265 266 268 269 269 267 266 265 264 263 262 261 259 259 259 259 259 259 259 259 259 259 259 258 257 256 256 255 255 254 253 253 252 253 253 253 254 256 252 252 252 253 253 254 254 254 254
262 262 263 264 264 265 266 267 268 269 271 272 273 273 274 275 275 275 274 274 274 273 273 272 272 272 274 277 275 273 270 269 267 267 266 265 264 264 263 261 260 260 261 261 261 264 264 263 262 261 261 259 259 260 260 259 259 259 259 258 258 257 257 255 254 253 252 253 253 253 252 254 254 253 254 253 253 254 254 254 254 254 254 254 254
262 262 262 263 263 264 265 266 268 269 271 271 272 273 274 274 274 274 274 274 273 272 272 272 271 270 270 271 271 270 268 268 267 267 265 264 263 262 260 259 258 259 259 258 258 259 261 261 259 258 258 259 258 258 258 258 258 259 259 258 257 257 256 255 254 254 254 254 253 252 252 253 253 253 254 255 254 254 254 254 254 254 254 254 254
261 262 262 262 263 263 264 267 268 269 270 271 272 273 273 273 274 274 274 273 271 271 272 271 269 268 268 268 269 268 268 267 264 264 264 263 261 259 258 258 258 257 257 256 256 257 258 258 257 256 256 255 255 255 255 255 255 256 258 259 258 257 256 256 256 254 254 254 253 253 253 253 253 254 254 254 254 254 255 254 254 255 254 253 253
261 262 262 262 263 264 265 266 268 269 270 270 271 272 273 273 273 273 272 272 271 271 270 269 269 268 267 267 266 265 265 264 264 262 261 260 260 259 258 257 257 256 255 254 255 256 256 257 256 256 255 254 253 253 253 252 253 254 254 255 257 256 255 254 254 254 254 254 254 254 254 253 253 254 255 254 254 255 254 254 253 253 253 252 253
261 261 262 262 263 264 266 266 267 268 269 269 270 271 272 272 273 271 270 271 270 270 269 269 268 267 266 265 265 264 263 263 262 261 261 260 259 258 257 257 256 255 254 254 254 255 256 256 256 255 255 254 253 253 252 251 251 252 252 252 253 253 251 253 253 253 253 253 253 253 253 253 254 254 255 255 253 253 253 252 252 252 251 252 251
261 262 263 263 264 264 265 266 266 266 268 268 269 270 270 270 271 270 270 269 269 269 268 268 267 266 265 264 264 263 263 262 261 260 258 257 257 256 257 257 257 256 255 254 254 254 254 255 255 255 254 253 253 252 251 250 250 251 250 250 250 251 253 253 251 251 251 252 253 253 254 254 254 253 253 253 251 251 251 251 251 250 250 250 250
262 262 262 262 263 263 264 265 265 266 267 267 267 268 267 268 268 268 268 268 268 268 268 267 266 265 264 263 262 261 260 259 259 258 257 257 257 257 256 256 255 256 256 255 254 254 253 253 253 252 252 251 251 251 250 251 250 250 250 249 253 255 254 253 252 251 253 253 252 252 251 252 252 251 252 250 251 250 250 248 248 250 249 249 249
261 261 261 262 262 262 263 263 264 265 265 265 266 265 265 265 266 266 266 267 267 267 266 265 264 264 262 262 261 261 260 259 258 257 257 256 256 256 256 256 256 256 256 255 254 252 251 251 250 250 249 249 250 250 250 250 250 250 249 252 258 258 256 255 254 255 253 249 251 250 251 250 248 249 248 249 249 249 249 249 249 250 249 248 248
260 260 260 260 260 261 261 261 262 262 263 263 264 264 263 263 263 264 264 264 264 264 264 263 263 262 262 262 261 261 260 259 259 257 257 256 256 256 256 255 255 255 255 254 253 252 250 250 250 250 250 251 250 249 249 249 248 249 254 257 258 258 257 256 254 254 253 251 248 249 250 250 248 248 247 247 247 248 249 249 249 249 248 248 248
Wind_Speed
5 4 4 4 4 5 5 4 5 5 5 5 6 7 6 6 6 6 4 7 5 6 7 8 7 8 8 8 10 10 10 10 9 9 9 10 10 10 9 9 11 11 9 10 8 9 10 11 12 12 10 11 10 9 10 11 10 10 8 9 10 9 10 12 14 14 1 2 2 4 5 8 8 9 10 9 8 8 7 6 8 8 7 6 6
8 9 7 5 5 5 5 4 4 4 5 5 6 7 7 6 6 5 6 8 5 7 8 7 7 7 8 9 9 9 9 10 8 9 10 11 11 9 10 10 11 11 9 11 9 9 8 10 11 10 9 11 10 11 10 9 10 10 10 10 11 11 11 11 13 12 10 3 2 3 6 7 7 8 11 10 9 8 8 7 5 7 7 6 6
6 5 6 6 6 5 5 5 4 4 5 6 6 8 7 6 5 6 7 7 5 7 7 7 8 7 8 8 9 9 9 9 8 8 10 11 12 11 10 10 11 11 11 12 10 8 9 9 10 10 7 9 9 10 9 10 9 11 12 10 11 12 10 12 11 11 12 5 5 7 7 7 6 9 9 7 8 9 9 8 7 6 6 6 6
6 6 6 6 5 5 5 5 5 5 5 6 7 7 7 6 5 6 7 6 7 7 6 7 7 7 8 9 9 9 9 9 8 9 11 11 11 11 10 10 11 11 12 11 10 9 10 9 10 9 8 10 10 9 9 9 9 10 10 10 11 12 11 10 12 11 6 6 5 6 6 7 3 6 7 7 9 8 8 7 7 7 6 5 6
7 8 7 10 9 8 7 6 6 6 6 5 7 7 6 6 5 6 6 7 7 7 7 6 7 8 10 10 10 10 10 9 9 10 10 10 11 10 10 10 10 11 11 10 10 9 9 10 9 8 9 11 9 9 7 10 9 10 10 10 10 10 8 8 10 8 5 6 5 2 5 3 2 6 9 10 7 8 7 7 7 7 6 5 5
7 8 8 9 10 10 9 8 8 8 8 7 7 7 7 6 6 5 6 8 7 7 8 7 7 9 9 10 10 10 9 9 10 11 11 10 10 10 9 10 10 10 10 10 9 9 9 10 9 9 10 11 10 9 9 10 9 10 10 9 9 8 8 6 6 7 7 5 8 5 4 6 5 5 7 9 11 8 7 7 6 5 6 5 3
8 8 9 7 9 10 10 9 10 9 8 8 7 7 7 6 6 7 6 7 7 8 7 8 7 8 10 8 10 10 10 9 10 10 10 10 10 10 10 10 10 10 9 10 9 9 9 9 9 9 10 10 10 10 9 10 10 11 11 11 9 7 7 7 6 7 7 6 4 6 7 3 7 8 5 6 7 10 12 9 6 3 4 6 4
8 8 8 8 8 9 9 8 9 9 9 8 8 8 7 7 6 6 5 7 7 8 8 8 8 7 9 9 9 8 9 9 9 10 10 10 9 10 10 10 10 9 9 9 8 8 9 9 9 9 10 10 10 10 9 10 8 9 8 7 6 7 8 6 6 7 7 7 7 7 5 8 5 3 6 8 8 4 5 6 10 6 4 2 3
6 7 7 7 8 8 7 7 7 8 8 8 9 9 9 8 8 7 6 7 7 7 7 7 9 9 9 9 10 8 9 10 9 9 10 10 9 10 10 10 10 10 9 9 8 8 8 8 8 8 10 12 14 13 12 11 8 8 7 7 8 8 7 6 7 7 6 6 6 7 8 7 8 9 8 9 10 10 6 5 5 6 6 5 3
5 5 5 5 5 6 6 6 7 7 8 8 9 9 9 9 8 8 8 7 8 7 7 7 8 9 10 10 9 9 10 9 11 15 14 11 9 9 9 9 9 9 9 9 9 8 9 8 8 12 13 13 13 14 14 13 14 11 9 9 9 9 9 8 8 8 8 9 9 10 10 9 9 10 10 8 6 8 7 7 8 6 7 5 3
4 4 5 5 5 5 5 5 5 6 6 6 7 7 9 8 8 9 8 8 9 8 7 8 8 8 9 10 10 9 9 9 14 16 17 19 12 9 9 9 9 9 9 10 10 9 9 8 7 9 10 10 11 14 14 15 15 15 13 13 12 12 10 9 9 10 10 9 8 9 10 10 9 8 8 8 8 10 9 7 8 8 8 9 5
6 6 5 5 5 5 5 5 5 5 5 6 6 7 7 7 7 8 8 9 8 6 7 9 9 8 8 9 10 10 10 11 15 16 17 17 15 11 9 9 9 9 9 10 9 8 8 8 7 7 7 8 8 8 11 13 14 14 12 12 13 14 14 13 11 8 8 8 8 9 9 9 10 8 8 8 8 7 7 8 9 10 9 7 4
9 8 8 8 8 9 9 10 9 9 8 7 6 6 6 6 6 7 9 7 6 7 8 8 9 8 8 10 11 11 10 11 14 16 16 17 17 14 9 10 9 9 9 9 9 8 6 6 6 6 6 10 8 7 6 7 10 12 10 11 12 13 10 11 10 10 11 10 11 10 10 10 11 9 9 10 9 9 8 8 7 7 5 6 4
9 10 9 10 10 10 10 11 12 11 10 11 10 9 9 9 8 7 8 7 6 8 7 8 8 8 8 9 11 10 10 10 14 16 16 16 16 14 10 10 10 9 9 8 8 7 7 7 7 7 5 6 6 7 6 6 6 6 7 6 6 8 10 10 10 9 9 10 11 11 8 10 11 10 9 11 13 11 10 9 8 9 7 6 6
8 8 9 9 9 11 12 11 12 13 12 12 12 12 11 12 12 10 9 9 10 10 9 9 9 7 8 8 9 12 10 11 14 15 15 16 15 14 10 8 8 8 8 7 7 7 7 8 7 7 6 7 7 8 8 7 7 7 7 7 7 7 8 8 7 8 7 6 7 8 9 9 10 12 11 9 9 9 10 11 10 8 7 7 7
7 8 10 10 10 10 10 12 12 11 12 12 12 12 12 11 12 12 11 10 8 7 8 7 9 10 8 7 9 12 10 10 13 14 15 15 15 10 8 8 9 8 8 7 7 8 7 7 7 7 7 8 9 14 10 8 8 9 9 8 8 7 5 6 11 10 9 8 8 9 9 9 11 11 11 10 8 9 9 9 9 9 9 8 6
8 9 9 9 9 9 9 10 11 11 10 11 12 11 12 13 12 8 11 11 10 10 10 10 8 9 10 8 9 12 11 8 12 14 14 16 12 8 7 7 7 8 8 8 8 7 6 7 7 7 7 7 10 15 15 13 9 10 11 11 8 8 8 8 15 16 15 14 14 15 15 17 19 20 19 18 12 11 10 10 9 9 9 8 4
9 10 10 10 10 10 9 9 10 11 10 10 11 11 10 9 9 7 9 12 13 11 9 11 10 7 9 11 9 11 12 8 10 14 14 15 12 9 7 7 8 8 7 6 5 5 6 10 8 7 7 7 12 17 17 14 11 11 12 12 12 11 9 8 8 10 17 18 18 18 19 19 20 21 20 19 19 13 12 11 10 9 7 7 7
9 11 12 11 10 10 9 9 9 10 11 11 9 11 11 10 10 8 8 8 11 10 9 9 11 9 7 9 10 11 11 10 11 14 14 14 12 7 7 7 8 7 6 6 5 6 6 7 11 8 8 9 17 18 20 15 11 12 12 13 12 12 10 12 12 12 11 12 12 12 12 14 12 10 12 19 16 9 5 7 9 9 8 7 7
9 9 9 10 9 9 7 8 9 8 10 11 9 9 8 9 9 8 9 8 9 10 8 8 11 11 7 7 9 8 9 10 9 16 15 14 15 9 5 6 8 7 6 6 6 5 5 5 8 13 15 16 18 20 21 20 12 11 11 11 13 13 10 11 12 12 12 11 10 10 10 8 8 7 7 8 7 5 6 7 7 7 7 7 7
9 10 10 11 11 10 9 6 9 10 7 9 10 9 7 8 10 8 10 9 9 10 10 9 9 11 8 6 8 8 8 9 9 10 13 14 14 12 6 7 7 7 6 6 6 6 5 5 6 11 16 16 18 20 22 19 15 13 13 12 11 12 13 11 14 16 11 11 10 9 9 8 7 7 6 6 6 5 5 5 4 4 6 7 6
9 10 11 12 12 11 11 11 8 8 9 8 10 12 9 6 8 8 7 8 10 12 10 8 9 11 9 6 6 8 7 9 8 9 11 12 12 14 9 8 7 6 6 6 5 4 5 5 5 9 15 16 18 20 22 20 19 10 9 12 19 21 12 10 10 9 10 9 9 8 8 8 7 7 6 6 6 5 6 6 6 7 6 3 6
9 10 11 12 12 12 11 11 11 8 9 8 9 12 11 8 8 6 7 9 9 11 10 8 9 10 10 8 5 7 7 7 9 8 9 12 13 13 13 9 11 7 7 7 5 5 3 4 5 11 15 16 19 20 21 22 16 9 15 19 22 22 15 9 10 10 9 9 9 11 8 7 7 7 7 6 6 6 6 6 7 7 8 7 7
9 10 10 11 11 12 11 11 10 8 9 9 9 10 11 10 8 7 6 7 8 10 9 7 8 9 10 10 7 6 7 6 6 9 9 11 12 13 14 16 14 7 7 6 5 5 6 6 7 14 17 17 20 21 22 19 12 16 19 22 22 18 10 10 9 10 10 9 9 9 8 6 7 7 6 5 5 6 6 6 6 7 8 8 8
10 11 11 11 11 10 11 11 10 10 9 7 9 10 11 8 10 8 5 6 7 8 9 7 8 9 9 10 9 7 6 5 5 6 9 10 13 13 15 15 17 14 6 4 4 5 6 9 11 15 16 17 19 20 18 19 19 18 20 22 18 9 10 10 10 10 10 9 9 8 6 5 5 7 7 7 6 6 7 7 7 8 8 9 8
12 13 12 12 12 11 12 13 11 9 9 7 7 8 9 10 9 10 7 7 7 8 8 7 7 8 9 9 8 8 5 4 5 5 5 7 8 12 13 11 8 9 6 4 7 9 10 11 13 15 15 13 10 9 8 10 16 17 20 17 9 9 9 10 9 10 9 8 8 8 7 6 6 8 8 7 7 7 6 6 7 5 5 6 7
11 11 11 11 11 9 10 10 10 10 9 7 7 7 7 7 8 9 8 8 8 7 7 7 7 7 8 8 8 7 6 5 5 5 5 5 5 5 5 4 5 5 3 2 4 5 6 7 7 10 7 10 8 8 8 10 11 12 10 8 7 8 8 10 11 10 9 8 7 8 8 8 8 9 6 6 7 4 5 7 7 4 4 5 7
11 12 12 10 10 9 9 11 11 9 9 8 8 9 8 7 8 10 9 8 8 9 8 8 7 7 8 7 7 7 6 5 5 5 5 4 4 2 1 2 2 2 2 1 2 2 3 5 8 7 6 6 7 7 7 7 7 8 7 6 6 6 8 10 9 7 6 7 8 8 8 7 8 7 6 6 6 5 4 6 5 4 3 4 5
11 12 11 9 9 8 8 8 8 9 10 9 7 8 9 9 9 10 8 7 8 9 9 9 9 7 7 7 8 9 7 7 7 5 5 6 5 4 4 4 4 4 5 7 4 3 4 5 6 6 6 7 8 7 7 8 8 7 7 6 7 7 7 7 8 7 8 9 9 11 10 7 7 6 7 6 5 5 5 7 4 7 3 4 5
12 12 10 10 10 10 9 9 8 8 9 9 10 11 9 13 11 10 10 9 14 16 14 11 9 7 8 8 6 9 9 6 5 7 8 8 9 9 8 8 7 5 7 10 5 3 5 4 4 4 5 6 6 7 8 8 8 7 6 7 7 7 7 6 7 8 8 9 9 9 8 8 7 6 6 7 5 5 3 6 4 4 4 4 5
12 11 11 10 11 11 11 11 10 9 8 9 8 10 12 10 12 17 18 14 12 14 16 19 19 14 9 8 7 10 10 9 10 9 10 9 9 9 10 9 10 9 10 7 5 4 3 3 3 5 4 5 6 6 7 8 8 8 7 6 5 6 6 6 7 7 8 8 7 7 7 8 8 7 7 7 7 6 6 4 5 4 6 7 5
12 12 11 11 13 12 11 11 12 11 10 9 8 9 10 12 13 10 13 17 15 14 15 15 14 14 15 13 8 6 10 11 11 11 11 11 11 11 12 12 12 12 12 11 4 2 3 4 4 4 5 5 5 6 6 7 7 7 7 7 5 4 6 6 6 7 8 8 8 7 7 7 7 6 6 7 8 6 6 6 5 6 5 4 3
13 13 12 12 12 13 12 11 11 10 11 10 10 8 8 9 11 13 8 9 14 13 13 14 15 15 15 15 15 12 9 9 11 12 12 12 12 12 13 13 13 13 14 7 5 5 4 5 5 4 5 6 5 6 5 5 6 6 5 6 6 5 5 6 6 7 7 7 8 8 7 7 7 7 7 7 8 6 6 6 4 4 5 5 1
12 11 11 12 12 12 11 11 11 11 10 10 9 9 9 9 10 10 11 10 7 8 11 13 13 14 14 15 14 13 12 12 12 11 13 12 13 12 11 8 11 14 10 6 6 6 6 6 5 5 5 5 5 5 6 5 5 6 5 5 5 6 6 6 7 7 7 7 8 7 7 7 7 8 7 6 5 6 7 6 6 6 4 5 4
11 13 18 15 10 11 10 10 11 11 11 10 10 9 9 9 8 9 9 9 10 9 7 5 7 10 9 8 11 13 12 12 12 12 12 12 12 12 11 6 6 5 5 5 5 5 6 6 6 6 6 6 5 5 6 6 6 5 6 7 8 7 6 6 7 7 7 7 7 7 7 8 7 7 8 8 7 6 6 6 6 6 6 4 4
12 11 11 12 11 10 10 10 10 11 11 11 11 10 9 9 9 9 9 9 9 9 8 5 4 5 9 10 11 12 12 13 11 13 12 12 11 12 6 4 4 5 5 5 5 5 5 5 6 6 6 6 5 5 5 6 5 5 5 8 10 7 7 7 7 7 6 7 8 8 7 6 6 7 6 6 7 8 7 7 7 4 4 5 4
11 11 10 9 9 9 8 10 9 10 12 13 11 11 10 9 8 8 8 9 8 7 7 5 3 4 5 4 7 10 13 10 11 11 11 10 12 6 3 3 5 5 5 5 5 5 5 5 5 6 6 6 5 5 6 6 6 6 7 7 9 7 6 7 7 8 8 7 7 8 7 7 7 7 8 8 6 6 6 5 6 6 6 6 6
12 11 11 11 12 13 12 11 12 16 13 11 10 10 10 9 9 8 8 8 8 7 6 5 4 5 5 4 5 4 5 7 8 6 8 9 6 4 4 5 6 6 5 4 5 5 5 4 5 6 5 6 6 6 6 6 6 7 7 6 6 6 9 8 8 8 7 8 8 7 7 7 7 7 7 8 8 7 6 7 6 6 4 6 5
11 15 19 21 16 12 10 12 12 11 10 10 10 10 10 9 8 8 8 7 7 7 5 5 5 5 5 4 4 4 4 5 5 3 3 5 3 4 5 5 6 5 5 5 5 5 5 5 4 5 5 5 6 6 6 6 6 6 7 7 7 7 8 7 7 7 7 7 7 7 7 6 6 6 6 6 6 6 7 6 6 6 7 6 5
12 11 11 17 12 12 12 12 13 12 11 10 10 9 10 9 9 8 8 7 7 7 6 6 6 5 4 3 4 3 4 4 3 4 4 4 4 4 5 6 5 6 6 5 4 5 5 4 4 5 5 5 5 6 5 6 6 6 6 7 8 8 7 7 8 8 7 7 7 6 6 6 5 5 3 5 6 6 7 7 6 6 6 5 5
11 12 13 13 13 13 12 12 12 11 10 9 8 9 10 9 8 7 7 8 7 7 6 5 5 4 3 5 8 4 2 5 4 4 4 4 4 4 4 5 6 6 5 5 5 4 4 5 4 5 5 5 5 5 6 6 6 6 6 6 6 7 7 6 7 6 7 7 6 6 5 5 6 6 6 4 5 6 5 6 6 6 6 5 5
12 12 12 12 12 11 11 12 11 13 12 11 11 10 10 9 8 8 7 7 6 5 5 4 4 3 4 8 9 11 7 5 5 4 5 4 4 4 4 4 3 4 5 5 5 5 5 5 5 5 7 6 5 5 5 6 6 6 7 7 7 7 7 7 6 6 6 6 5 6 5 6 6 5 6 6 6 6 6 6 6 5 4 4 3
13 12 12 12 12 11 12 13 12 11 11 10 10 10 10 10 9 6 7 6 6 5 5 5 4 1 2 6 9 10 7 5 5 6 5 4 4 4 3 3 3 3 4 4 4 4 5 5 5 5 6 7 6 6 7 7 7 6 6 6 7 7 6 6 5 5 5 6 6 5 6 6 6 6 6 7 6 6 6 5 4 4 4 4 5
11 12 12 12 12 12 12 11 11 11 10 12 12 11 10 9 8 7 7 7 6 6 6 5 5 5 4 4 5 6 6 6 6 6 6 5 5 4 3 2 3 3 4 3 2 2 4 6 6 5 4 4 3 3 2 3 5 6 7 7 6 6 6 6 6 7 7 7 6 7 6 6 6 6 7 7 6 6 5 5 5 5 5 4 4
11 11 11 11 11 11 12 10 9 10 10 11 11 10 7 8 8 7 7 6 4 5 6 6 5 5 4 5 5 6 6 6 5 5 5 6 6 5 4 3 2 2 4 4 3 4 5 7 8 7 7 5 4 4 4 4 3 3 4 7 7 7 6 7 7 7 7 8 8 7 7 7 7 6 5 5 5 5 6 6 6 5 5 4 5
10 10 11 12 12 12 11 10 9 8 9 9 9 9 8 7 7 6 5 5 4 6 5 5 5 5 4 5 4 4 5 6 5 5 4 5 6 5 4 4 4 4 4 4 4 4 4 5 6 7 7 6 5 4 4 3 4 4 4 4 6 6 6 6 6 8 8 8 8 8 7 5 5 5 6 6 5 5 5 5 4 5 5 5 5
11 10 11 11 11 11 11 10 10 9 9 10 10 9 8 7 6 5 4 4 5 4 5 6 5 5 5 5 5 5 5 6 6 6 6 6 6 5 4 4 5 5 5 3 4 5 5 6 6 7 6 5 5 5 5 4 5 5 4 4 5 6 5 5 6 6 6 5 6 6 7 6 6 5 6 5 5 5 4 5 5 5 5 5 5
10 10 10 11 11 11 11 10 11 11 10 9 9 8 6 5 4 4 3 4 5 4 5 4 4 4 4 4 3 4 4 5 5 5 5 4 4 4 4 5 6 5 5 4 4 4 5 5 5 6 6 5 5 5 4 4 5 5 5 6 5 6 7 7 6 5 6 6 6 6 7 7 6 6 5 6 5 5 5 5 4 4 5 4 5
9 10 10 10 10 10 10 10 9 10 10 9 8 7 4 4 3 2 2 3 3 4 4 4 4 4 5 4 4 4 4 5 6 5 4 5 4 4 4 5 5 6 9 9 7 6 6 5 5 4 4 4 4 5 5 5 5 5 5 5 7 9 9 7 5 6 6 6 5 5 5 6 6 5 6 5 6 5 5 4 4 4 4 4 4
9 9 10 10 9 9 9 8 8 8 6 6 5 5 4 3 2 1 1 2 3 3 3 4 4 4 4 4 3 4 5 6 5 4 4 4 4 4 4 6 7 8 7 7 7 6 6 5 5 5 5 4 5 5 5 5 5 5 4 4 9 10 9 8 7 8 7 5 6 6 6 6 5 5 5 6 5 6 5 5 4 6 5 5 5
9 9 8 8 8 8 8 8 7 7 6 5 4 3 3 3 3 3 3 3 3 3 4 4 5 5 4 3 3 5 5 5 6 5 4 4 4 4 3 7 8 6 5 5 5 6 5 4 4 4 4 4 4 5 4 5 4 4 5 7 9 10 9 7 6 7 7 5 5 6 6 6 5 5 5 5 5 5 7 5 6 5 5 5 4
Wind_Direction
344 325 308 289 282 283 282 284 276 271 274 264 263 264 265 256 255 251 261 245 232 233 233 235 233 230 231 229 229 227 221 221 212 214 219 230 233 234 236 228 236 242 238 239 228 231 236 238 234 230 224 226 223 221 220 220 217 223 216 217 222 212 212 225 236 252 162 333 105 160 162 151 171 177 178 179 173 174 158 152 149 148 142 132 120
350 337 331 314 307 299 293 288 283 285 280 278 270 272 270 264 257 261 247 253 225 238 237 239 236 234 234 235 234 236 235 231 220 215 220 225 232 226 233 230 234 242 235 242 233 227 225 235 242 239 228 228 222 224 218 218 213 215 215 211 219 218 209 214 233 237 236 93 106 112 153 178 167 176 180 171 169 155 146 140 135 134 133 128 124
322 308 304 319 322 316 312 306 299 292 287 282 277 273 273 270 260 255 255 258 241 239 245 241 239 238 240 241 239 239 235 237 231 223 228 230 233 230 225 226 231 237 237 240 239 231 232 234 241 239 233 232 227 228 216 220 213 216 220 211 220 221 211 212 219 229 230 196 162 163 172 181 174 175 172 164 155 151 140 139 135 121 117 127 125
330 331 331 329 325 321 321 314 318 308 296 286 283 281 280 278 267 259 261 264 260 251 242 248 245 240 243 244 240 241 239 234 232 226 231 232 236 236 230 228 231 235 237 241 237 230 233 237 242 237 233 232 228 226 221 217 212 219 220 217 219 220 215 210 215 226 217 163 193 174 170 161 133 150 140 139 144 143 138 125 120 121 122 120 123
342 342 343 338 341 348 342 340 331 315 299 291 285 287 284 283 275 264 269 265 257 259 256 239 247 242 241 242 242 239 237 235 232 233 234 236 238 238 234 232 233 235 237 239 239 234 237 237 245 231 228 233 231 227 219 217 217 217 220 219 217 220 218 206 214 213 192 174 137 139 141 100 93 143 145 144 132 108 117 130 132 122 111 110 91
342 341 347 348 343 344 342 340 338 328 319 313 305 300 295 287 281 269 254 266 263 254 255 250 237 247 243 245 243 245 241 234 233 235 235 236 238 238 238 238 237 236 236 235 235 233 238 244 243 233 232 230 234 228 219 220 216 219 221 220 218 216 212 206 197 197 193 173 153 135 156 142 137 140 153 147 137 117 106 105 104 110 123 112 94
344 346 348 351 342 341 339 336 331 326 322 316 311 307 301 291 283 278 265 260 267 266 257 256 249 245 252 246 247 245 245 236 236 236 238 236 234 234 234 235 238 239 238 236 234 233 236 240 240 233 234 233 235 230 222 220 215 221 216 219 213 200 203 198 185 184 183 156 151 149 138 140 148 143 147 139 135 144 140 135 120 120 108 114 115
343 344 347 346 344 336 334 327 328 323 319 319 316 312 309 305 295 284 280 274 268 265 263 260 260 245 251 248 251 247 247 245 239 239 238 236 233 234 231 232 234 238 240 239 235 234 234 236 237 234 232 234 231 232 221 223 215 223 218 211 198 192 199 184 177 181 175 168 161 154 153 143 108 50 120 131 122 124 167 151 154 143 129 97 116
336 336 339 341 335 328 323 324 320 319 320 320 320 319 316 310 306 300 289 279 271 266 267 265 269 264 257 252 255 246 245 244 238 236 240 239 232 235 230 229 230 235 238 238 235 235 238 238 239 238 235 236 232 230 225 218 207 217 213 193 193 192 187 175 181 177 179 167 151 147 148 150 154 148 154 164 170 166 152 121 113 122 124 121 115
326 325 326 317 312 313 314 314 315 315 317 319 317 315 312 309 306 302 295 286 281 275 272 265 260 265 268 264 257 252 248 247 241 237 234 236 234 234 232 231 228 231 235 239 237 230 233 232 236 234 236 236 236 235 232 224 216 212 206 187 188 189 185 179 181 182 176 175 171 163 161 165 165 167 162 164 128 108 125 133 128 129 123 120 123
321 328 327 317 308 301 305 301 299 303 297 298 300 303 304 305 305 301 296 291 286 285 278 274 265 259 260 263 264 257 253 250 245 242 242 238 235 234 231 234 228 230 231 233 237 232 230 227 231 232 233 236 235 233 230 226 221 220 211 196 190 183 179 183 189 181 181 182 168 167 169 164 169 164 159 143 144 150 153 147 132 140 153 151 165
346 342 327 322 322 326 321 312 309 301 299 296 295 291 289 291 291 289 290 291 287 284 280 270 272 269 266 264 261 259 257 251 247 247 245 245 238 235 233 232 229 228 228 230 234 231 230 226 225 222 222 224 224 227 229 226 221 217 207 197 197 195 187 181 179 182 181 163 160 173 161 167 159 161 154 150 144 130 139 150 157 159 160 167 146
341 341 343 342 343 343 340 340 336 334 332 325 313 308 300 297 294 296 292 285 287 280 270 274 269 268 264 267 266 260 258 253 250 250 248 245 241 236 238 234 233 234 228 229 229 228 225 227 230 220 222 219 219 215 213 219 217 205 194 191 194 194 197 202 192 180 167 165 167 170 172 158 160 172 165 155 145 142 151 157 161 156 133 139 137
343 337 340 344 343 342 342 341 338 334 332 331 331 330 330 325 315 298 294 299 289 286 282 273 273 267 262 262 268 269 262 259 250 250 249 245 243 238 240 237 236 236 234 228 228 224 220 220 223 225 212 206 205 202 195 194 178 169 169 174 177 186 183 160 135 147 161 162 163 170 169 160 165 159 158 153 157 162 157 156 152 152 150 140 127
333 336 337 337 342 343 341 340 336 334 333 334 334 333 333 328 329 327 321 317 313 305 302 298 285 274 270 264 269 272 267 263 257 253 251 248 244 240 239 239 238 237 234 229 224 222 216 218 217 219 203 201 202 191 188 175 164 162 157 158 150 147 139 135 126 126 129 135 152 151 151 158 159 161 161 162 156 151 156 155 153 139 114 96 85
330 338 338 338 340 339 338 333 331 331 330 330 330 328 328 327 324 324 320 314 304 293 290 279 284 288 280 275 277 276 275 266 262 260 256 254 247 242 239 237 238 235 231 224 223 220 217 208 211 209 199 205 203 198 186 164 163 160 150 135 127 119 104 112 126 127 132 139 146 156 160 157 148 149 149 143 127 117 102 95 100 115 128 141 146
339 337 331 330 331 332 332 327 324 323 323 323 321 321 324 322 321 321 313 311 308 307 300 294 291 288 288 281 275 279 281 274 266 264 260 257 253 247 239 239 238 236 232 225 226 220 211 203 204 205 198 199 198 195 184 169 159 151 147 145 135 119 117 126 130 134 138 141 143 141 139 143 147 148 147 140 135 131 122 122 147 149 148 148 147
334 333 328 329 326 326 325 321 316 316 316 315 313 310 310 302 301 313 307 309 307 305 304 301 294 283 283 283 272 279 284 277 268 268 261 256 246 245 239 238 240 236 240 231 224 221 212 208 200 197 192 190 191 188 178 171 162 159 152 143 140 133 134 133 119 125 130 130 130 131 136 140 142 144 144 143 141 140 142 158 164 152 156 158 154
331 328 322 319 318 316 316 313 310 308 308 305 306 305 307 305 303 306 296 291 289 294 299 294 294 289 274 276 282 276 280 281 272 270 262 257 250 242 238 236 244 242 235 235 219 215 212 207 201 192 188 186 188 185 180 176 163 163 158 150 149 147 155 143 133 129 128 123 122 123 123 128 129 129 140 143 143 140 131 135 149 155 157 155 134
316 311 308 307 304 303 301 302 297 295 297 298 297 292 295 300 300 301 298 292 292 297 295 290 290 291 290 283 282 273 277 278 269 271 266 259 251 245 245 245 248 248 232 230 225 223 211 203 201 198 194 190 190 187 184 175 168 162 161 159 156 160 156 139 133 130 132 124 119 112 104 104 103 105 110 122 122 105 120 146 156 148 143 147 150
314 312 311 309 308 306 303 295 299 298 287 289 294 293 289 291 300 303 302 303 299 296 295 295 291 288 290 281 280 276 265 273 274 262 264 261 255 245 238 241 247 244 243 232 226 217 207 208 205 203 197 194 194 191 182 173 167 169 173 172 165 143 139 133 138 131 120 117 114 112 108 101 96 96 100 100 100 95 86 77 83 113 134 145 149
314 314 311 310 307 306 306 306 299 293 298 300 299 298 295 285 284 292 295 295 300 298 297 297 295 292 293 282 275 276 271 263 270 269 260 255 246 235 229 235 233 242 245 241 229 222 210 207 203 200 199 195 194 191 184 177 173 169 169 149 136 140 137 128 126 120 117 118 119 113 115 116 116 112 106 100 81 82 84 80 77 55 51 92 146
313 310 308 306 304 302 302 301 301 304 299 297 292 291 295 298 292 292 294 298 297 297 296 300 298 297 297 287 277 276 272 269 266 266 261 256 248 243 235 230 239 229 229 234 221 213 197 196 197 197 195 191 191 190 185 178 170 167 158 143 145 139 133 128 128 124 122 122 125 116 126 132 130 127 122 104 88 75 65 59 61 70 67 60 46
307 303 300 297 298 298 299 297 295 293 290 293 291 288 293 296 294 287 288 292 295 297 297 295 294 294 296 298 290 275 272 267 269 268 267 265 263 256 249 243 234 215 213 215 199 191 192 194 194 195 191 188 190 190 184 176 168 170 153 148 143 139 136 134 127 127 127 128 133 132 135 140 129 128 113 96 86 77 73 59 57 65 75 71 65
309 304 302 300 299 298 300 297 297 296 292 288 293 295 295 298 299 298 291 288 285 284 287 292 285 289 292 290 291 286 279 280 275 274 268 267 266 263 257 249 244 228 215 228 192 196 204 203 200 198 195 194 196 189 177 176 170 166 154 147 142 140 140 135 131 131 138 148 152 146 134 123 109 109 98 101 103 90 85 66 67 71 78 83 75
308 304 304 303 302 305 305 302 300 293 291 285 273 275 282 292 292 292 294 281 281 278 283 289 282 281 283 286 287 289 297 290 281 277 274 264 262 259 257 251 218 209 202 211 212 207 206 200 199 201 201 200 192 182 170 169 165 162 148 140 137 143 139 134 134 143 151 152 153 146 128 110 98 118 118 116 101 107 110 101 96 78 91 103 87
295 295 294 297 297 298 295 295 300 301 294 286 277 272 270 275 279 280 281 284 283 279 273 276 280 277 278 283 286 290 283 275 270 268 266 266 266 268 258 226 199 196 175 199 204 201 200 199 194 195 193 192 171 141 130 145 145 138 133 138 144 142 141 148 157 155 149 137 123 105 104 111 113 118 121 113 108 95 101 116 107 116 105 95 99
297 297 297 293 290 290 289 287 289 291 291 289 289 292 279 260 269 274 278 279 284 284 281 272 271 273 276 278 284 282 275 263 250 246 248 237 240 224 147 119 129 109 116 134 159 187 175 193 192 183 173 149 132 134 135 127 121 121 123 134 134 120 110 98 71 75 82 102 107 112 108 121 126 122 114 107 115 103 106 109 119 115 124 115 77
300 298 297 294 290 286 278 282 285 290 292 291 268 247 269 281 269 269 256 241 248 266 277 273 268 265 267 270 275 281 273 264 253 226 227 224 201 168 162 160 141 146 167 171 163 175 171 187 191 178 161 146 136 132 123 117 111 112 114 109 95 99 106 121 129 125 128 122 124 124 128 123 121 115 117 110 109 107 89 90 86 118 79 70 116
309 307 309 304 304 304 303 297 293 290 291 295 300 292 247 235 242 258 273 252 248 250 253 262 264 264 267 263 247 258 270 272 273 238 230 216 197 185 172 162 163 155 169 175 167 176 189 201 184 157 143 133 130 130 128 118 111 105 109 105 110 122 127 124 124 129 124 126 133 133 134 129 131 137 131 125 106 89 90 112 117 125 113 121 132
311 308 311 309 307 307 303 302 299 295 290 291 293 295 305 294 248 246 254 255 250 255 261 263 268 263 250 269 265 260 269 266 257 239 221 201 179 164 165 165 165 169 174 169 174 186 183 130 124 125 120 121 121 123 120 124 123 120 112 113 117 123 122 119 127 122 121 122 124 125 131 139 143 147 144 141 130 107 69 67 96 90 119 135 138
313 309 310 306 306 302 300 298 299 297 296 291 286 290 294 298 301 278 253 259 260 255 260 263 265 268 264 262 265 271 264 256 247 230 207 185 170 166 164 167 172 174 185 174 152 122 100 107 110 116 122 121 117 113 121 124 128 123 123 126 125 119 126 121 126 120 122 123 126 131 133 133 139 142 135 132 124 119 112 104 107 108 96 96 121
309 305 304 303 302 300 297 294 290 287 285 287 286 282 279 284 290 302 290 237 244 249 255 262 265 268 268 265 259 255 254 251 245 226 192 177 169 168 171 174 177 181 184 160 129 124 107 113 107 104 114 119 124 119 114 118 120 123 129 139 137 120 98 107 112 110 118 129 129 133 133 128 131 127 130 132 133 133 132 121 111 106 118 116 108
302 298 298 299 297 293 292 289 289 288 283 279 276 275 272 267 274 278 291 300 280 252 249 253 260 264 266 263 258 256 254 247 244 209 182 176 173 173 172 184 186 195 176 137 138 130 127 119 111 109 101 109 117 118 117 112 110 117 111 98 101 105 110 113 112 118 119 124 123 127 126 132 139 133 130 117 112 123 135 144 142 133 139 153 173
301 296 295 295 290 290 289 289 288 287 287 284 280 276 273 271 266 270 273 278 281 284 286 264 255 254 255 261 258 250 248 248 236 195 184 179 178 178 176 177 193 183 109 86 110 123 128 133 125 122 123 127 134 135 134 126 125 129 130 129 100 108 113 115 115 119 121 119 122 130 138 140 144 140 143 140 133 137 152 155 168 160 152 151 146
302 298 297 295 291 288 290 292 291 288 288 285 282 277 275 273 270 267 267 265 268 272 274 256 242 253 250 253 257 256 251 252 218 187 184 182 182 180 171 180 114 107 110 93 98 100 92 106 115 110 110 106 116 115 126 129 128 124 114 115 124 128 131 129 133 125 125 126 131 132 125 126 137 134 123 132 157 163 167 170 164 158 150 151 157
300 298 294 294 289 284 279 279 276 276 279 280 279 277 271 266 263 263 261 262 261 258 257 257 256 262 246 248 257 264 264 236 186 184 183 182 182 173 113 115 114 113 107 108 106 108 110 107 118 118 119 121 119 125 122 118 119 119 129 130 122 139 148 146 141 136 132 127 134 141 142 147 151 154 153 156 167 161 159 153 146 152 154 154 145
292 291 294 295 297 293 290 287 286 286 280 274 273 272 270 267 262 257 256 255 253 249 246 237 228 221 221 238 248 255 263 184 172 179 182 185 173 117 116 107 116 118 123 112 118 116 116 120 124 129 129 128 133 132 130 134 140 138 139 142 143 142 138 135 130 125 125 129 138 143 142 150 161 162 159 157 165 164 159 153 147 152 152 161 156
294 291 290 289 287 287 285 286 284 283 280 278 275 273 269 267 261 255 251 248 246 239 233 227 223 212 214 211 243 250 235 166 182 158 54 36 69 108 110 113 109 111 114 122 116 119 121 128 118 114 129 134 140 145 143 144 140 140 141 139 139 140 136 130 136 139 137 142 142 149 152 161 166 171 163 147 150 155 154 153 157 156 157 165 178
300 297 295 295 291 286 287 287 287 283 282 282 280 275 272 263 258 254 248 245 239 232 223 219 218 206 204 199 216 227 228 174 113 107 95 69 68 78 104 114 119 129 132 126 119 121 120 119 136 133 135 133 139 136 132 136 140 141 146 149 148 148 151 148 149 151 154 152 150 157 158 157 153 143 138 144 150 150 151 161 167 166 163 164 171
300 297 296 294 290 291 288 286 281 280 279 273 273 274 268 264 258 252 245 241 234 228 219 212 200 206 217 207 207 187 126 114 115 96 98 106 93 92 97 108 124 124 118 120 118 118 118 133 134 126 112 120 124 130 131 133 133 142 146 145 141 141 146 151 152 150 145 148 150 150 140 135 143 147 152 157 150 147 152 148 149 159 168 174 170
299 298 296 294 294 289 287 284 282 282 281 282 278 272 270 263 255 245 242 234 230 217 203 188 196 217 209 183 161 118 112 118 117 118 111 105 106 91 92 82 80 111 126 127 134 130 125 121 108 126 114 130 127 123 125 134 145 146 149 151 150 148 153 160 158 149 144 142 134 137 139 148 157 160 156 152 151 150 149 158 164 161 155 149 138
296 294 293 293 292 288 289 288 285 284 281 280 278 276 267 262 255 243 234 228 219 199 186 180 176 157 112 130 128 114 111 122 116 114 113 103 96 98 83 83 55 53 69 70 44 100 131 135 135 137 135 136 142 152 158 162 157 152 152 152 151 153 148 137 129 125 116 120 130 141 150 155 157 156 158 161 164 164 165 155 140 137 141 146 158
296 295 292 289 286 282 279 279 282 280 278 279 279 277 272 261 249 236 229 218 207 190 187 174 161 146 131 115 118 112 122 127 131 128 127 124 116 113 106 98 105 103 88 79 81 79 121 123 114 84 70 74 50 52 67 111 147 156 152 143 138 133 133 139 147 150 152 144 145 150 159 161 165 165 169 167 157 150 139 138 146 154 156 162 154
292 289 290 290 288 286 286 280 276 279 280 282 279 276 264 251 242 231 223 215 198 188 182 168 160 154 147 147 143 137 138 133 129 130 129 127 124 121 116 97 62 67 77 77 63 62 76 72 73 82 78 61 55 58 67 73 70 92 122 137 138 144 162 171 169 157 150 149 153 157 165 171 174 173 162 151 154 152 158 165 164 153 153 158 169
294 290 289 287 286 283 283 283 282 280 282 281 281 279 267 250 241 232 219 206 188 183 173 166 165 163 151 138 125 124 129 124 121 115 120 117 119 112 97 99 86 77 70 67 70 75 79 93 98 99 104 104 99 100 101 102 105 109 113 121 140 149 150 140 136 144 159 161 163 167 162 156 152 157 157 159 163 161 157 150 156 165 168 173 184
295 288 284 279 281 284 287 287 287 283 284 286 283 280 268 255 242 230 216 196 189 181 168 166 161 156 147 144 145 144 140 137 139 135 132 121 115 116 114 111 104 97 90 73 77 87 90 88 88 109 120 126 126 124 122 112 107 100 100 99 105 112 125 138 147 153 152 147 139 137 148 151 157 160 161 153 149 155 153 163 162 169 170 175 182
289 283 284 289 292 292 292 292 290 289 286 284 280 278 272 265 247 220 197 186 178 170 163 153 150 137 128 117 112 120 123 121 116 113 104 89 89 89 91 94 100 100 99 81 68 80 92 105 115 113 117 123 122 114 104 88 78 76 72 76 91 105 117 120 121 130 140 142 146 146 147 150 154 156 156 156 156 154 156 170 159 160 169 180 182
304 303 300 298 296 297 298 298 296 295 293 295 292 285 284 276 262 235 187 177 172 157 155 148 129 113 107 105 111 119 118 120 116 106 92 97 91 80 80 87 86 81 64 70 69 63 64 72 79 89 97 98 97 105 104 103 103 99 103 107 119 125 126 125 130 140 139 132 132 130 130 134 145 149 150 150 155 158 158 154 160 170 176 179 180
313 309 307 307 307 308 307 302 300 300 302 299 297 303 316 331 342 4 39 98 109 108 101 98 103 103 106 113 119 123 120 118 109 98 93 92 82 90 91 83 76 76 76 80 72 66 70 85 93 96 98 105 110 114 121 123 128 129 129 143 138 133 130 125 127 136 135 138 139 143 141 140 137 140 146 148 150 150 155 165 173 175 178 181 190
318 317 318 320 322 322 320 322 323 327 323 322 325 338 348 3 9 10 30 47 60 77 83 84 84 85 80 86 108 121 115 106 117 108 89 96 101 97 89 90 93 90 91 91 88 66 86 91 97 101 107 103 106 112 118 124 131 145 161 156 143 141 141 139 138 142 135 133 131 132 137 144 143 142 142 143 143 153 167 166 172 179 184 188 182